GFSGL_sfc_dewp_159.txt.gz
Dewpoint
48 47 47 47 48 48 47 47 47 47 48 46 44 43 43 42 42 43 44 45 45 45 45 46 46 45 45 44 44 43 42 43 43 43 43 44 44 43 43 44 45 46 46
46 46 47 47 47 47 47 47 47 47 47 44 44 43 43 43 42 42 42 43 44 45 45 45 45 46 45 45 44 43 43 44 44 43 43 44 44 44 44 45 44 43 45
46 46 47 47 47 46 46 46 46 46 44 42 43 43 43 43 43 42 42 42 43 44 45 45 45 45 45 46 45 45 44 44 44 44 43 43 45 46 45 44 44 45 44
44 45 46 46 46 46 45 45 46 45 43 43 43 43 43 43 42 42 43 42 42 43 45 45 44 46 46 46 45 45 44 44 43 43 43 42 43 44 46 46 45 46 44
44 45 46 46 46 46 45 45 45 46 45 45 45 44 43 42 42 43 43 42 42 43 43 44 45 47 48 47 46 45 45 44 44 42 42 42 41 41 42 45 45 45 45
46 46 46 45 44 44 44 44 44 44 44 44 44 42 41 41 43 44 43 41 42 41 41 43 44 46 46 46 46 46 46 45 45 44 43 41 41 42 43 43 43 44 43
46 45 44 43 43 42 43 43 42 41 42 42 41 40 40 41 42 42 44 41 41 41 41 43 44 44 44 43 44 45 45 46 47 46 44 43 42 42 43 42 43 44 43
44 44 44 43 42 42 42 42 41 40 41 41 40 40 39 40 41 41 42 40 41 42 44 44 44 43 43 42 43 43 43 44 44 46 46 47 45 43 44 44 44 44 45
43 43 43 42 41 41 41 40 40 40 42 42 41 40 39 38 40 40 40 41 42 41 43 45 45 42 42 41 42 42 42 43 44 46 45 45 43 42 43 45 44 43 42
43 43 42 42 41 41 40 41 40 41 42 43 42 41 41 38 40 39 40 40 39 40 42 43 44 42 40 40 41 41 41 42 44 46 46 47 47 46 45 45 45 43 43
43 42 42 41 41 40 40 40 39 39 39 38 38 38 39 39 38 39 39 37 38 39 40 41 42 41 40 39 40 39 40 41 44 45 46 46 47 48 47 45 45 44 43
42 42 42 41 42 41 39 39 39 38 37 37 37 37 38 38 39 39 38 38 40 38 39 40 41 40 38 39 38 38 38 41 41 43 43 44 45 47 49 48 46 46 47
40 40 41 41 41 40 39 38 37 36 36 36 36 35 36 37 37 38 38 38 39 39 40 41 40 38 37 37 37 38 38 38 39 40 41 42 44 47 49 48 47 47 48
41 40 40 40 39 38 38 38 37 35 35 36 36 35 35 36 36 37 37 37 38 38 39 38 37 36 36 36 35 35 35 37 37 38 39 41 44 46 49 49 46 47 45
40 40 39 38 38 37 36 36 36 35 35 34 34 35 35 34 35 36 36 36 37 37 37 33 32 32 32 32 32 33 34 34 35 36 37 38 41 43 47 50 48 47 47
39 39 38 38 37 36 36 35 37 37 37 36 36 36 36 36 36 37 36 35 35 35 31 30 30 31 30 31 31 31 32 33 33 35 35 36 38 41 45 49 50 49 48
37 37 38 38 37 36 36 36 35 35 37 37 36 36 36 36 36 36 36 34 33 32 29 29 29 29 29 29 30 30 30 31 32 33 34 35 37 40 44 46 47 49 49
38 39 37 37 38 38 38 37 36 35 37 36 36 35 35 35 36 36 35 32 29 30 29 28 28 28 28 28 28 29 29 30 30 31 32 34 36 39 41 43 45 47 47
38 37 36 37 37 37 36 35 35 37 35 34 35 35 35 35 36 35 32 29 29 28 29 27 27 27 27 27 27 28 28 28 29 30 31 33 35 38 39 42 43 40 41
39 37 38 37 36 36 35 34 35 35 35 35 34 34 35 35 35 31 28 27 27 27 28 26 26 26 26 26 26 27 27 27 27 28 29 31 33 36 38 40 40 41 42
39 37 35 37 36 35 34 35 36 35 35 35 34 34 32 35 34 30 28 26 25 24 25 26 24 24 24 25 25 25 26 26 27 27 29 30 32 33 35 37 37 39 40
39 38 37 36 36 34 34 35 34 34 35 34 34 34 32 34 33 30 29 27 25 23 22 22 23 23 24 24 24 24 24 25 26 26 28 30 32 32 34 34 34 35 37
39 38 37 37 35 33 34 34 33 33 32 31 32 31 31 32 31 30 28 27 25 23 22 21 22 22 24 24 25 24 24 24 25 26 28 30 31 31 33 32 33 32 33
38 37 36 36 35 33 33 32 31 30 30 32 31 30 30 29 29 28 28 27 24 22 22 22 22 23 24 24 24 24 24 25 26 26 27 29 30 30 31 31 32 32 31
37 36 35 35 34 31 31 30 30 31 29 28 27 27 27 27 27 27 26 25 25 24 22 22 23 24 24 24 24 24 25 26 25 27 27 28 28 29 30 29 29 31 30
37 36 35 35 34 33 33 32 32 29 28 27 27 26 26 25 25 25 24 24 23 23 23 24 23 24 25 24 25 25 25 25 25 26 26 26 27 27 28 28 28 29 29

GFSGL_sfc_dewp_162.txt.gz
Dewpoint
47 48 48 48 48 48 48 48 48 47 46 45 45 45 44 44 44 44 46 46 46 47 47 47 47 48 46 46 46 46 45 44 43 43 44 45 44 45 45 47 47 46 45
47 47 47 47 47 47 47 47 47 46 45 45 45 45 44 44 44 44 44 44 45 45 46 46 46 46 46 46 45 45 45 45 44 42 44 43 45 45 45 46 47 46 46
47 47 47 46 46 46 46 47 46 45 44 44 45 44 44 44 44 44 44 43 44 45 46 46 47 47 47 46 45 45 46 45 45 44 42 44 43 43 43 44 45 46 46
46 46 46 46 46 46 46 46 46 45 45 45 45 44 43 43 44 44 44 44 44 45 46 46 46 47 47 47 46 46 46 46 45 45 44 43 42 43 43 43 43 44 45
46 46 46 46 46 46 46 46 46 46 46 46 43 42 43 43 43 44 43 44 44 44 45 45 46 48 47 46 45 46 46 45 45 44 45 44 43 42 41 43 43 44 43
46 46 46 45 44 45 45 45 45 44 44 43 42 42 42 42 43 45 44 43 44 44 44 45 46 46 45 45 45 46 46 44 44 44 44 44 45 44 43 43 44 43 42
46 45 44 44 44 44 44 43 43 43 43 42 41 41 41 42 42 42 44 43 44 44 46 46 44 43 44 43 44 44 45 45 46 46 44 44 45 46 44 43 44 44 44
44 44 44 43 43 43 43 42 42 43 42 41 41 41 41 41 41 41 42 44 44 44 45 46 45 44 43 42 42 42 43 44 45 45 46 47 47 48 47 44 44 45 46
44 43 43 42 42 42 42 42 42 43 43 42 41 41 41 41 40 40 41 42 42 43 43 44 44 42 41 40 41 41 41 43 44 45 45 44 43 44 45 46 44 43 42
43 43 43 43 42 42 42 42 42 43 43 42 40 41 40 40 39 39 40 40 41 41 42 42 42 40 39 39 40 39 39 40 42 45 46 47 47 48 47 47 46 42 43
43 42 42 42 42 42 42 41 41 40 40 40 39 40 40 40 40 39 39 40 40 40 38 38 38 39 38 38 38 37 38 40 42 44 44 46 47 47 48 50 49 46 44
43 42 42 43 42 40 40 40 39 39 39 38 39 39 38 39 40 39 38 39 41 39 38 37 37 37 37 37 36 37 37 38 39 40 42 43 44 45 47 50 52 49 48
42 42 42 42 40 40 39 39 38 39 38 38 37 37 37 38 38 38 38 38 39 38 37 37 36 36 35 35 36 36 36 36 36 38 39 41 42 45 48 50 51 50 48
41 40 41 40 39 39 38 38 38 38 38 37 37 36 36 37 37 37 36 37 36 34 35 33 34 34 35 34 34 34 34 35 35 37 38 39 42 45 46 49 50 50 48
40 40 40 39 38 37 37 38 37 37 37 37 37 37 36 37 36 37 36 33 34 32 33 31 31 31 31 31 32 33 33 33 33 35 37 38 40 41 44 48 49 50 49
40 39 39 38 38 37 37 37 37 37 37 36 36 36 36 36 36 36 34 33 33 33 29 28 28 29 29 29 30 30 31 32 32 34 36 37 38 40 42 46 47 47 47
39 39 40 38 38 37 37 37 37 37 37 37 36 36 36 36 36 35 34 32 31 30 27 27 27 27 28 28 28 29 29 30 32 33 34 36 37 40 41 42 44 44 45
39 38 39 39 39 39 39 39 38 38 37 36 36 35 36 35 33 32 32 29 26 26 26 25 25 26 27 27 27 28 29 29 30 31 32 34 36 38 39 40 41 41 42
38 38 39 39 39 38 38 37 37 37 35 35 37 36 35 34 32 30 30 26 24 23 24 23 24 25 25 26 26 27 28 28 29 30 31 32 34 36 37 39 39 37 38
39 37 38 38 37 37 36 36 36 36 35 35 35 35 36 34 29 25 23 22 22 22 22 22 23 23 24 24 25 26 26 27 28 28 29 31 33 34 35 36 37 38 39
38 39 35 37 36 36 36 36 35 35 35 35 35 34 32 31 28 24 20 20 20 20 20 20 20 21 23 24 24 25 25 26 27 28 29 30 32 33 34 34 34 35 36
38 38 37 37 36 35 35 35 35 36 35 33 35 33 32 31 28 24 21 20 20 20 21 21 20 21 22 22 23 24 24 25 26 27 28 30 31 32 32 32 32 33 34
40 38 38 37 35 34 35 34 34 34 32 33 32 33 32 30 27 24 22 20 20 20 21 22 22 21 23 23 24 24 24 25 26 27 28 30 30 31 31 31 31 31 31
39 38 37 36 35 34 34 33 33 31 32 31 31 31 31 29 28 27 25 23 20 20 21 22 22 22 22 23 23 23 24 25 26 26 28 29 29 30 30 30 30 30 29
39 37 37 36 34 32 32 32 31 31 29 28 28 27 27 26 25 25 24 23 22 21 21 22 23 23 23 22 22 22 25 26 25 27 27 28 28 29 28 28 29 29 28
38 37 36 36 35 33 32 32 29 28 28 27 27 26 25 25 24 23 23 22 21 21 21 22 22 23 23 23 23 25 26 26 25 26 25 25 25 26 27 27 28 28 28

GFSGL_sfc_dewp_165.txt.gz
Dewpoint
52 52 52 52 52 52 51 50 50 50 48 47 47 47 47 48 48 49 49 48 49 50 50 51 50 50 48 47 47 46 45 45 43 45 45 47 48 47 46 46 46 46 46
51 51 50 51 51 51 50 49 49 49 48 47 47 47 47 48 49 48 47 48 48 49 50 50 49 48 50 50 47 49 48 48 46 45 47 46 46 48 47 46 46 45 46
48 48 50 50 50 50 50 49 49 48 47 47 47 47 47 47 48 48 47 48 49 50 50 50 49 50 50 49 49 48 48 47 47 45 45 46 46 46 45 46 46 46 45
46 47 49 49 50 49 49 49 48 48 48 47 47 47 47 47 47 47 48 49 49 49 50 49 50 49 49 49 48 48 47 47 47 45 45 46 46 48 45 44 44 45 44
46 46 48 49 49 48 48 49 49 49 47 47 47 47 47 46 45 48 48 48 49 50 50 48 49 48 47 46 45 48 48 46 45 45 45 45 45 45 44 45 45 44 45
46 46 47 47 48 48 48 48 48 47 47 47 47 47 48 44 43 45 48 49 50 49 48 49 48 47 47 47 45 45 46 45 45 45 45 45 46 46 47 46 45 44 43
46 46 46 46 46 47 47 47 48 48 48 47 47 48 47 46 42 43 45 49 49 49 48 48 45 43 45 44 46 47 47 46 46 46 46 46 47 47 48 46 46 45 45
45 44 44 44 45 45 46 47 48 48 47 46 47 47 46 43 41 41 43 48 47 47 46 46 45 44 43 42 45 47 48 48 48 46 47 48 48 48 48 48 47 48 46
44 43 44 44 44 45 45 47 48 47 47 46 46 46 47 45 40 40 44 45 46 45 43 43 40 41 39 39 45 46 47 47 45 45 45 44 44 44 46 49 48 45 45
43 43 44 44 45 46 47 48 48 47 46 43 44 45 42 45 40 40 42 42 44 40 41 40 39 39 38 38 43 43 44 44 45 47 49 49 48 50 48 51 49 45 45
43 43 44 46 47 48 48 48 47 46 45 45 44 45 45 43 43 39 39 41 37 36 32 32 35 37 37 37 38 39 38 39 44 46 47 47 48 48 48 50 53 50 46
43 43 45 46 44 44 46 45 45 45 45 45 45 43 42 43 39 39 38 39 39 35 33 33 36 36 36 36 36 36 37 40 42 43 44 45 46 46 48 50 54 52 51
44 45 45 44 43 44 44 44 43 45 43 42 41 42 41 40 39 38 37 38 37 33 32 35 35 35 36 37 37 37 38 39 40 40 42 42 44 45 49 50 51 53 54
44 45 45 44 43 43 41 42 42 42 42 41 40 40 41 39 37 35 31 32 33 32 35 32 34 34 35 35 36 36 37 37 37 38 40 42 44 45 46 47 49 49 51
44 44 44 42 43 42 42 41 40 41 40 42 41 39 40 38 32 33 30 28 28 30 32 29 29 29 30 32 33 34 35 36 36 37 39 40 41 42 43 46 48 49 48
43 43 42 42 41 41 40 39 37 37 37 36 36 38 37 36 36 33 32 32 32 32 27 26 27 28 29 31 32 32 33 34 35 35 36 37 38 39 40 42 44 46 46
43 44 42 41 41 41 41 41 40 38 38 36 36 36 35 34 34 34 33 31 30 28 24 24 26 27 28 31 32 31 31 33 36 35 34 34 35 36 38 40 42 42 44
44 41 43 42 41 41 41 41 40 41 38 37 36 33 33 32 31 31 31 28 22 24 23 24 24 26 28 30 31 31 31 32 33 33 34 33 34 34 35 36 38 42 42
42 42 43 43 41 42 41 40 40 38 38 37 37 31 30 30 29 28 28 21 21 21 21 21 23 25 26 28 30 31 33 30 31 32 33 33 33 33 33 34 35 36 38
42 40 41 41 40 40 39 39 39 37 37 37 37 35 33 28 25 22 21 20 20 19 20 20 21 23 25 25 27 29 30 30 30 30 32 33 33 32 31 31 32 34 36
41 41 36 40 39 38 39 39 38 36 36 36 35 35 31 26 23 22 19 19 19 19 19 19 16 19 21 24 25 27 28 29 30 30 31 32 32 31 31 31 30 31 32
41 41 40 39 38 38 38 38 37 36 35 34 35 30 30 27 24 23 21 19 19 20 21 21 19 19 20 22 24 25 26 27 29 29 30 31 30 30 30 29 29 29 29
40 40 39 38 38 36 37 37 36 34 33 34 33 30 28 27 25 24 21 20 19 20 21 21 20 19 21 22 23 24 25 26 28 30 30 30 29 30 29 28 28 28 28
40 40 38 37 37 37 37 36 34 32 32 33 33 31 30 29 27 27 24 22 20 19 20 21 21 21 22 21 21 21 25 26 28 28 29 28 27 28 28 27 27 28 27
41 39 38 37 36 36 35 35 32 31 31 32 31 30 28 27 26 25 23 21 19 19 20 21 22 22 21 21 21 22 26 27 27 28 26 26 26 28 26 26 27 26 26
41 39 38 37 36 34 34 32 31 30 29 28 28 28 27 25 24 24 22 20 19 19 20 21 21 22 21 21 23 26 27 27 26 28 24 22 21 22 22 23 24 24 24

GFSGL_sfc_dewp_168.txt.gz
Dewpoint
60 59 59 57 57 57 54 53 53 53 51 49 49 49 49 50 51 52 52 52 52 53 54 53 53 54 50 49 49 49 47 48 46 46 46 49 51 50 50 51 47 46 46
57 57 57 56 54 54 53 52 52 51 50 49 48 48 49 50 52 51 50 51 52 52 52 52 52 50 54 54 49 53 50 50 48 47 49 46 49 50 50 51 47 46 47
55 54 54 53 52 53 52 52 51 50 49 48 49 50 50 50 50 50 50 51 51 52 52 52 52 52 52 52 52 51 49 49 49 47 46 47 47 47 48 49 49 49 45
51 50 51 52 52 51 52 51 50 50 49 50 50 50 50 50 50 50 51 52 52 51 52 52 52 51 51 51 50 51 51 50 49 47 47 46 46 48 48 48 47 47 45
47 48 50 51 51 51 50 50 50 50 49 49 50 50 50 49 46 52 51 52 52 52 52 51 50 48 47 48 46 49 51 49 47 46 46 46 46 47 47 47 47 46 46
47 48 49 49 49 50 51 51 50 50 50 50 50 50 50 45 44 45 49 52 52 51 51 50 50 48 46 47 47 48 48 49 49 47 46 46 49 48 48 47 48 47 46
46 46 47 48 48 49 49 49 49 51 52 51 51 51 51 49 42 43 45 52 51 51 50 48 45 41 46 43 45 49 50 48 47 48 49 49 49 49 49 48 49 49 48
45 45 46 46 46 47 48 49 50 51 51 51 51 50 50 45 41 41 43 51 50 49 49 47 44 44 43 41 45 49 50 51 50 48 50 50 50 50 51 52 51 51 49
44 45 45 45 46 46 48 50 50 50 50 50 50 50 50 48 40 40 45 49 49 48 45 45 42 42 39 39 46 48 49 50 47 46 46 45 44 44 47 52 50 49 46
44 44 45 45 46 47 49 50 51 50 49 47 48 49 45 48 39 40 41 43 46 41 42 41 38 38 37 37 43 46 46 46 47 50 51 50 50 52 48 54 52 49 49
44 44 46 47 49 50 51 50 50 49 49 49 49 50 48 46 42 39 39 39 36 37 34 32 35 37 37 37 38 42 41 41 46 48 47 47 48 50 49 51 55 55 51
44 45 48 48 46 47 49 48 48 49 49 50 49 47 46 46 38 38 38 37 35 36 33 30 34 36 36 37 37 37 37 41 44 45 45 45 45 46 48 52 54 56 55
46 47 47 47 46 47 48 48 47 49 46 46 45 45 44 43 43 37 36 36 35 33 30 32 35 36 36 37 37 37 39 41 42 42 43 44 45 46 50 51 53 54 53
47 47 47 46 46 45 43 45 45 46 46 45 44 45 44 42 37 31 30 32 35 31 37 34 33 35 36 36 35 35 35 37 38 39 41 42 43 43 44 46 47 48 49
47 46 46 45 45 45 44 43 42 43 40 43 43 43 43 39 27 30 29 25 28 29 33 29 28 29 31 32 32 33 34 35 35 35 34 34 35 39 40 44 45 46 46
46 44 44 43 43 42 42 41 38 38 37 37 37 38 34 34 33 32 32 31 31 32 29 27 27 28 30 31 32 31 32 35 35 34 34 33 33 33 34 39 41 44 44
45 45 43 43 43 43 42 42 41 39 37 37 35 34 34 34 34 33 31 30 28 29 25 25 27 28 30 32 32 31 30 32 36 34 34 34 33 33 33 33 37 41 41
46 42 43 43 43 43 43 43 41 41 40 38 33 30 31 31 31 30 30 31 24 24 23 24 25 27 29 30 31 31 31 31 32 32 33 33 33 32 30 31 32 37 39
44 43 45 44 43 43 42 41 41 41 40 37 31 28 29 30 28 28 28 22 21 21 21 21 24 26 27 27 30 31 33 30 31 31 32 32 32 31 31 30 30 30 32
45 41 42 43 42 42 41 40 40 40 40 38 37 35 32 31 29 25 22 21 21 21 21 20 21 24 26 26 27 28 28 29 30 30 31 31 31 31 30 29 29 29 28
43 43 37 42 41 41 40 40 40 40 39 39 39 34 29 28 26 24 21 20 21 21 21 21 16 19 21 24 25 26 26 28 29 29 30 30 30 29 30 29 28 28 28
42 42 42 41 41 40 40 40 40 39 38 37 34 28 30 30 26 25 22 20 21 22 22 23 19 19 20 21 23 24 24 25 28 29 29 28 28 28 28 27 27 27 27
41 41 41 40 40 38 39 39 39 38 37 36 33 31 29 28 27 25 22 21 21 21 22 22 21 20 23 23 23 21 21 24 27 28 28 27 25 27 27 26 26 26 26
40 40 39 39 38 38 39 38 37 34 35 35 33 32 30 30 29 29 25 22 21 21 22 22 22 22 23 21 20 19 22 26 26 25 28 24 24 25 25 24 25 25 25
41 40 39 38 38 38 38 38 36 34 34 34 34 32 31 29 28 27 24 21 20 21 21 22 23 23 23 22 21 21 27 28 27 27 25 23 24 24 21 21 23 22 23
42 41 39 38 38 38 38 37 35 34 33 32 30 31 30 28 27 25 22 21 19 20 21 22 23 23 22 21 23 27 28 28 27 28 27 21 20 21 19 19 19 18 19

GFSGL_sfc_dewp_171.txt.gz
Dewpoint
64 63 63 61 60 59 57 55 54 54 52 50 50 50 51 52 54 55 55 54 54 55 55 54 54 55 53 51 51 50 49 49 47 47 47 51 55 53 52 53 51 50 49
62 61 60 59 57 56 55 54 53 52 51 50 49 50 51 52 54 53 53 53 53 53 53 53 53 52 55 56 51 56 54 54 49 52 52 48 52 54 54 54 51 49 50
59 58 58 57 55 55 54 53 52 51 50 50 51 51 51 51 52 52 52 52 52 52 53 53 53 53 53 51 52 51 50 50 50 48 47 47 49 52 52 52 51 50 49
56 55 55 55 54 53 53 53 52 51 51 52 52 51 51 51 51 51 52 53 53 52 53 53 52 50 50 49 47 50 50 51 51 48 47 47 49 52 49 49 48 50 49
53 52 53 53 53 52 52 52 51 51 51 52 52 52 51 49 47 52 53 53 53 53 53 51 51 48 49 48 43 47 51 50 48 47 47 47 47 49 47 48 47 48 50
51 50 50 50 50 52 52 52 51 51 52 52 52 51 51 45 44 45 50 54 53 52 52 51 49 47 46 46 47 47 49 49 50 48 47 48 49 51 50 49 49 48 47
49 48 49 49 50 51 50 50 51 53 54 53 53 52 52 48 42 43 45 53 52 53 52 50 43 38 45 42 45 47 50 50 49 50 49 50 50 51 51 50 50 51 49
47 47 47 47 48 49 49 51 52 54 53 53 52 52 51 44 42 42 43 51 53 51 50 49 46 42 41 40 45 49 51 52 51 48 53 53 53 53 52 53 54 52 51
45 45 45 46 48 48 49 51 52 53 52 52 52 52 52 47 41 40 43 51 51 49 46 45 42 41 38 39 45 47 48 49 47 49 46 45 44 43 46 52 52 51 49
44 45 46 47 48 49 51 52 52 52 51 49 50 51 48 47 39 38 37 43 46 43 45 42 38 38 38 38 43 45 44 45 45 49 52 52 50 51 48 55 55 50 51
45 45 47 48 50 51 52 52 51 51 51 51 50 51 49 48 40 38 35 36 36 39 35 32 34 36 37 37 38 42 42 41 45 49 49 48 49 49 48 52 55 53 51
45 46 49 50 48 49 52 51 51 51 51 52 52 50 49 46 40 36 36 35 36 38 34 29 32 34 36 38 37 36 37 40 42 43 43 45 46 46 47 49 55 54 54
48 49 49 49 48 49 49 50 47 50 49 49 48 46 46 45 43 38 36 36 36 33 33 33 36 36 37 38 39 38 38 36 36 35 36 36 41 47 51 50 52 53 54
48 49 48 48 48 49 46 47 46 46 46 45 45 46 45 42 34 29 31 32 38 33 38 36 34 35 37 39 35 35 35 36 36 35 35 34 35 37 39 43 46 47 47
48 47 48 46 47 47 44 43 44 40 40 45 44 44 39 39 23 28 28 25 28 30 31 32 30 32 32 33 33 33 34 35 35 35 35 34 32 32 33 36 41 44 45
47 46 45 45 44 43 42 41 38 38 37 35 34 37 30 31 31 32 32 32 32 32 31 29 29 30 31 32 32 32 32 34 35 34 35 34 32 32 31 33 34 39 43
47 47 44 43 44 43 43 42 40 37 35 33 33 33 31 32 33 32 31 32 33 31 27 27 28 29 30 31 32 32 31 32 37 34 34 34 33 32 31 30 31 31 33
47 43 45 44 44 43 43 44 42 41 40 35 30 29 29 30 30 29 31 32 27 27 24 25 26 28 28 29 31 31 32 31 32 32 33 33 33 31 30 30 29 30 31
45 44 45 45 43 43 43 43 42 42 41 37 31 29 28 29 28 27 29 26 25 23 22 23 26 27 28 27 29 30 32 30 31 31 32 32 31 31 30 29 29 29 29
46 42 43 43 43 42 42 42 41 41 41 39 38 36 34 31 31 28 25 24 24 23 23 21 22 25 26 26 27 27 27 29 29 30 31 31 30 31 29 28 28 27 28
44 44 37 42 42 41 41 41 41 41 41 41 40 33 29 33 30 27 23 22 23 23 23 22 17 20 23 24 24 25 25 26 28 29 30 28 29 27 29 28 27 27 27
43 43 43 41 41 41 41 41 40 40 40 39 37 29 29 31 29 27 24 23 23 24 24 24 21 21 21 22 23 22 21 21 25 26 29 26 26 25 26 26 26 26 26
41 41 41 41 41 39 40 40 40 40 39 38 34 32 31 31 30 27 23 22 23 24 24 24 24 22 24 23 23 20 17 20 25 25 29 25 24 23 24 24 24 24 24
41 41 40 40 40 39 40 39 39 36 38 36 35 34 32 33 31 30 24 23 23 23 24 24 24 24 24 22 20 18 19 24 27 25 28 24 23 23 22 21 21 22 21
42 41 40 40 39 39 39 39 38 37 36 36 36 35 34 32 30 28 24 22 22 22 23 24 25 24 24 22 21 19 25 29 28 27 26 25 23 25 20 19 20 19 20
43 42 40 40 39 39 39 39 37 36 36 36 35 34 33 31 29 27 23 22 21 21 22 24 24 23 23 22 23 26 28 29 27 28 27 22 20 21 20 19 19 17 18

GFSGL_sfc_dewp_174.txt.gz
Dewpoint
65 65 64 62 61 60 58 57 57 58 57 54 55 55 56 57 58 59 59 58 58 58 58 57 56 58 56 54 53 53 52 52 50 50 52 53 52 52 52 52 51 50 50
64 62 61 60 59 58 56 56 56 56 55 54 54 54 54 55 58 57 56 56 56 55 56 56 55 53 53 53 51 52 52 52 52 51 51 50 50 53 51 51 50 50 50
61 60 59 58 57 56 56 56 55 55 55 54 54 54 53 54 55 56 55 54 55 56 56 55 55 53 51 50 49 49 50 51 52 50 48 49 49 50 49 49 49 49 49
58 57 57 56 56 55 56 56 55 55 55 55 55 53 54 54 53 55 55 56 56 56 56 56 53 49 49 47 45 48 49 51 51 49 48 47 48 49 49 49 48 49 49
56 55 56 55 55 54 54 54 55 55 55 54 54 53 51 49 46 49 53 56 56 56 55 50 51 51 49 47 44 45 47 49 50 48 45 47 48 48 48 50 49 49 49
54 53 53 53 53 54 54 54 55 55 55 55 54 51 49 44 44 46 48 55 56 55 53 51 50 47 44 44 46 47 48 48 50 49 48 48 49 50 50 49 51 50 48
52 51 51 52 52 53 52 53 55 56 57 55 54 53 50 47 43 43 44 51 56 55 54 49 45 42 41 40 43 47 51 50 50 50 49 48 50 51 51 50 51 51 50
49 50 50 50 51 51 52 54 55 55 54 53 53 52 48 41 41 40 40 49 56 54 52 49 46 45 40 40 41 48 49 52 50 49 50 50 52 52 51 51 52 51 49
49 49 49 50 51 51 52 54 55 53 53 52 51 53 49 43 39 37 41 49 54 52 43 42 41 41 38 39 42 45 46 48 46 47 46 46 45 43 45 50 51 49 48
47 48 49 50 51 52 54 54 55 54 52 50 52 52 48 43 37 36 38 41 50 49 44 41 38 37 37 37 40 43 42 42 42 45 48 50 49 50 48 53 52 49 48
47 48 50 52 53 54 55 54 56 54 53 52 52 52 51 44 40 36 36 38 40 43 38 35 39 36 36 37 38 42 39 38 42 47 47 48 48 49 48 52 54 51 48
48 49 51 53 51 53 54 54 53 53 53 53 52 50 46 47 41 35 34 34 37 45 40 39 40 34 36 38 38 37 37 40 42 41 40 40 41 45 45 51 51 52 52
50 51 51 52 52 53 52 53 52 53 51 51 51 50 50 45 42 37 36 36 38 40 40 39 37 36 37 41 39 40 39 41 40 38 38 39 40 44 46 49 49 49 49
51 51 51 51 51 51 50 51 49 49 51 50 50 49 42 34 32 30 33 36 37 36 36 38 41 38 39 40 41 40 38 40 40 40 39 39 40 39 39 43 45 45 46
50 50 50 50 46 43 40 44 40 36 39 44 44 36 40 30 21 30 30 29 31 32 34 42 40 40 39 38 39 39 38 38 38 40 39 38 36 36 35 40 37 37 44
49 48 48 48 46 45 42 37 35 34 34 33 34 32 26 30 31 32 33 33 33 33 39 36 36 36 35 35 36 37 37 37 38 38 38 37 36 36 35 36 37 33 34
48 49 48 46 45 44 43 41 36 31 33 32 31 30 31 29 31 31 31 32 32 33 34 34 34 34 34 35 35 35 35 36 39 38 37 37 35 36 35 33 33 32 31
49 45 48 46 46 46 45 43 41 40 37 30 30 28 28 28 29 29 32 33 33 32 31 31 32 33 33 33 33 34 35 35 34 36 36 36 34 35 33 33 31 34 31
47 47 48 48 46 46 46 45 43 43 40 34 30 29 28 28 30 32 33 32 31 29 29 29 31 32 32 33 34 34 36 34 33 34 34 34 34 33 33 32 32 32 31
49 44 46 46 45 45 45 44 43 43 41 38 38 36 35 32 35 33 32 31 30 29 29 28 30 32 33 31 31 29 28 30 30 31 33 32 34 31 32 31 32 30 31
47 48 40 45 44 44 44 43 43 42 41 41 37 31 30 37 33 30 28 28 29 29 29 30 22 26 28 28 27 25 25 27 28 28 32 31 32 28 30 30 30 30 31
46 47 46 44 45 45 44 44 43 42 42 41 37 31 29 35 32 30 29 29 30 31 30 31 26 25 24 25 25 23 22 23 28 28 31 31 29 26 27 27 27 28 28
44 44 45 44 44 41 43 42 42 42 41 40 35 32 33 34 32 29 27 29 30 30 31 29 28 26 27 26 25 21 20 24 28 27 28 30 28 26 25 26 25 25 24
43 44 43 43 42 42 43 42 42 39 40 38 37 36 35 35 34 33 29 30 29 29 30 29 28 25 26 25 22 19 23 26 28 26 27 29 27 26 24 24 23 24 23
47 44 43 43 41 42 42 41 41 40 39 37 38 37 36 35 33 31 30 29 28 28 28 29 29 27 24 22 21 20 27 29 28 28 28 29 24 27 22 21 22 22 22
48 45 43 42 42 42 42 41 40 40 38 38 38 39 37 34 32 30 29 28 27 27 27 28 25 24 22 22 23 27 29 29 28 29 28 26 22 22 23 21 20 19 21